COSMOS 1083

Satellite information

Favourite Embed

Satellite Type and Status

PAYLOADIN ORBIT

Key statistics

Satellite COSMOS 1083 at a glance.

Uptime

17036

Days in orbit

Revolutions

≈ 12.5

Per day

Orbit

LEO

Low Earth Orbit

Inclination

74.0

Latest

Satellite identification and parameters

Extended collection of information and parameters for COSMOS 1083.

Object identification

Identified? True

Debris? False

Object name: COSMOS 1083

International designator: 1979-024C

Object number (NORAD): 11298

Object ID (CCSDS): 11298

Country: COMMONWEALTH OF INDEPENDENT STATES (CIS)

Current information (Y/N): Y

RCS size: MEDIUM

Orbital parameters

Period: 114.96 minutes

Inclination: 74.0323 deg

SMA: 7831.726 km

Apoapsis: 1465.543 km

Periapsis: 1441.639 km

RAAN: 169.1051 deg

Eccentricy: 0.0015261

Argument of periapsis: 285.7845 deg

Mean anomaly: 190.7092 deg

Mean motion: 12.526119 rev/day

Mean motion (dot): 0.00000007 rev/day2

B* drag term: 0.00014404 1/REarth

Two-line elements (TLE)

Creation date: Nov. 2, 2025, 3:46 p.m.

Reference frame: TEME

Reference center: EARTH

Epoch: Nov. 2, 2025, 7:57 a.m. UTC

TLE line 0: 0 COSMOS 1083

TLE line 1: 1 11298U 79024C 25306.33192514 .00000007 00000-0 14404-3 0 9990

TLE line 2: 2 11298 74.0323 169.1051 0015261 285.7845 190.7092 12.52611900132471

Live tracking on map

Real-time ground track for satellite COSMOS 1083.

In-orbit conjunctions

There are no conjunctions computed for COSMOS 1083, at the moment. Check back to stay up to date, as we update our databases every day.

Go to all conjunctions

Associated space launch

Military communications satellites

COSMOS 1083 was lifted into orbit during the mission ‘Kosmos-3M | Strela-1M 169-176’, on board a Kosmos-3M space rocket.

The launch took place on March 15, 1979, 2:58 a.m. from 132/2.

For more information about the launch, click the button.

Launch to space Kosmos-3M | Strela-1M 169-176
Kosmos-3M | Strela-1M 169-176

Agency: N/A

Status: Launch Successful

Launch date: March 15, 1979, 2:58 a.m. UTC

Rocket: Kosmos-3M

Launch pad: 132/2

Location: Plesetsk Cosmodrome, Russian Federation

...

Latest news about this satellite

There are no fresh news available about this satellite. Check back as we update our databases every day.


Newsletter sign-up

Weekly statistics, charts and insights to help you stay on top of the space industry.